TimeEST,TemperatureF,Dew PointF,Humidity,Sea Level PressureIn,VisibilityMPH,Wind Direction,Wind SpeedMPH,Gust SpeedMPH,PrecipitationIn,Events,Conditions,WindDirDegrees,DateUTC
12:51 AM,34.0,21.0,59,29.99,10.0,WNW,13.8,-,N/A,,Scattered Clouds,300,2013-02-25 05:51:00
1:51 AM,33.8,21.2,60,30.01,10.0,NW,12.7,-,N/A,,Partly Cloudy,310,2013-02-25 06:51:00
2:51 AM,34.0,21.9,61,30.02,10.0,WNW,11.5,-,N/A,,Scattered Clouds,300,2013-02-25 07:51:00
3:51 AM,34.0,21.9,61,30.03,10.0,NW,10.4,-,N/A,,Mostly Cloudy,310,2013-02-25 08:51:00
4:51 AM,33.1,23.0,66,30.04,10.0,NW,6.9,-,N/A,,Partly Cloudy,310,2013-02-25 09:51:00
5:51 AM,33.8,23.0,65,30.06,10.0,NW,9.2,-,N/A,,Partly Cloudy,310,2013-02-25 10:51:00
6:51 AM,34.0,24.1,67,30.07,10.0,NW,10.4,-,N/A,,Clear,320,2013-02-25 11:51:00
7:51 AM,35.1,25.0,67,30.11,10.0,NW,8.1,-,N/A,,Clear,320,2013-02-25 12:51:00
8:51 AM,37.0,24.1,59,30.12,10.0,NNW,9.2,-,N/A,,Clear,340,2013-02-25 13:51:00
9:51 AM,39.0,25.0,57,30.13,10.0,North,9.2,-,N/A,,Partly Cloudy,350,2013-02-25 14:51:00
10:51 AM,41.0,24.1,51,30.13,10.0,NNW,11.5,-,N/A,,Partly Cloudy,340,2013-02-25 15:51:00
11:51 AM,42.1,24.1,49,30.13,10.0,North,9.2,-,N/A,,Partly Cloudy,10,2013-02-25 16:51:00
12:51 PM,43.0,23.0,45,30.14,10.0,North,6.9,-,N/A,,Mostly Cloudy,360,2013-02-25 17:51:00
1:51 PM,43.0,24.1,47,30.13,10.0,NW,6.9,-,N/A,,Mostly Cloudy,320,2013-02-25 18:51:00
2:51 PM,43.0,24.1,47,30.15,10.0,NW,8.1,-,N/A,,Mostly Cloudy,320,2013-02-25 19:51:00
3:51 PM,43.0,25.0,49,30.15,10.0,NNW,4.6,-,N/A,,Mostly Cloudy,330,2013-02-25 20:51:00
4:51 PM,43.0,24.1,47,30.15,10.0,NNW,5.8,-,N/A,,Mostly Cloudy,330,2013-02-25 21:51:00
5:51 PM,43.0,23.0,45,30.17,10.0,NNE,5.8,-,N/A,,Mostly Cloudy,20,2013-02-25 22:51:00
6:51 PM,42.1,26.1,53,30.19,10.0,NW,6.9,-,N/A,,Mostly Cloudy,320,2013-02-25 23:51:00
7:51 PM,42.1,27.0,55,30.21,10.0,North,4.6,-,N/A,,Mostly Cloudy,350,2013-02-26 00:51:00
8:51 PM,42.1,27.0,55,30.21,10.0,Calm,Calm,-,N/A,,Mostly Cloudy,0,2013-02-26 01:51:00
9:51 PM,41.0,27.0,57,30.23,10.0,Calm,Calm,-,N/A,,Mostly Cloudy,0,2013-02-26 02:51:00
10:51 PM,39.0,28.9,67,30.23,10.0,NE,4.6,-,N/A,,Overcast,50,2013-02-26 03:51:00
11:51 PM,37.0,28.0,70,30.22,10.0,NE,6.9,-,N/A,,Mostly Cloudy,40,2013-02-26 04:51:00